Tracking 31027 objects as of 19-Jul-2025
HD Live streaming from Space Station
objects crossing your sky now

COSMOS 2251 DEB

Track COSMOS 2251 DEB now!
10-day predictions


NORAD ID: 33766
Int'l Code: 1993-036P
Perigee: 738.7 km
Apogee: 829.7 km
Inclination: 74.2 °
Period: 100.4 minutes
Semi major axis: 7155 km
RCS: 0.3164 m2 (medium)
Launch date: June 16, 1993
Source: Commonwealth of Independent States (former USSR) (CIS)
Launch site: PLESETSK MISSILE AND SPACE COMPLEX (PKMTR)

Note: This is SATELLITE DEBRIS
Your satellite tracking list
HAWK-4A
Track 1 satellite(s)




NASA's NSSDC Master Catalog

Two Line Element Set (TLE):
1 33766U 93036P   25199.32172862  .00000849  00000-0  30374-3 0  9994
2 33766  74.1863  42.5424 0063544 287.6106  71.8112 14.34395056856312
Source of the keplerian elements: AFSPC